EWG25L EFHK-EDDH

Flight info

Callsign EWG25L
Flight time 1h 50m
Altitude 34000
Route NUNTO Y369 REKDO DCT KOSKA DCT GIMRU T503 MICOS/N0397F280 N850 BOGMU BOGMU5A
Aircraft A319/M-SDE3FGHIRWY/LB1

Departure

Time 2026-05-07 17:22
Airport Helsinki Vantaa Airport (EFHK)

Arrival

Time 2026-05-07 19:12
Airport Hamburg Helmut Schmidt Airport (EDDH)
Time Latitude Longitude Altitude Speed Heading
2026-05-07 16:42 60.31837 24.96469 168 ft 0 kts 137°
2026-05-07 17:11 60.31840 24.96463 167 ft 3 kts 137°
2026-05-07 17:11 60.31859 24.96424 167 ft 4 kts 127°
2026-05-07 17:12 60.31872 24.96379 167 ft 4 kts 96°
2026-05-07 17:12 60.31869 24.96345 167 ft 0 kts 47°
2026-05-07 17:15 60.31869 24.96346 167 ft 1 kts 47°
2026-05-07 17:15 60.31886 24.96384 167 ft 6 kts 47°
2026-05-07 17:16 60.31924 24.96466 167 ft 10 kts 47°
2026-05-07 17:16 60.31972 24.96571 166 ft 10 kts 48°
2026-05-07 17:16 60.32025 24.96691 166 ft 10 kts 47°
2026-05-07 17:16 60.32075 24.96799 167 ft 12 kts 47°
2026-05-07 17:17 60.32113 24.96862 167 ft 7 kts 12°
2026-05-07 17:17 60.32173 24.96817 166 ft 12 kts 329°
2026-05-07 17:17 60.32246 24.96731 166 ft 10 kts 330°
2026-05-07 17:17 60.32311 24.96657 169 ft 11 kts 330°
2026-05-07 17:18 60.32379 24.96579 174 ft 13 kts 330°
2026-05-07 17:18 60.32487 24.96453 174 ft 21 kts 330°
2026-05-07 17:18 60.32628 24.96289 173 ft 26 kts 330°
2026-05-07 17:18 60.32755 24.96138 173 ft 20 kts 329°
2026-05-07 17:19 60.32881 24.95990 175 ft 22 kts 329°
2026-05-07 17:19 60.33019 24.95830 181 ft 23 kts 330°
2026-05-07 17:19 60.33117 24.95685 180 ft 20 kts 317°
2026-05-07 17:19 60.33204 24.95486 183 ft 15 kts 284°
2026-05-07 17:20 60.33156 24.95285 179 ft 21 kts 227°
2026-05-07 17:20 60.33107 24.94972 179 ft 27 kts 271°
2026-05-07 17:20 60.33117 24.94606 186 ft 21 kts 273°
2026-05-07 17:20 60.33114 24.94387 190 ft 14 kts 239°
2026-05-07 17:21 60.33026 24.94193 188 ft 31 kts 227°
2026-05-07 17:21 60.32719 24.93526 181 ft 96 kts 227°
2026-05-07 17:21 60.32134 24.92252 166 ft 150 kts 227°
2026-05-07 17:21 60.31446 24.90732 771 ft 143 kts 226°
2026-05-07 17:22 60.30773 24.89251 1359 ft 143 kts 227°
2026-05-07 17:22 60.30197 24.87486 1730 ft 161 kts 244°
2026-05-07 17:22 60.29867 24.85162 1993 ft 185 kts 262°
2026-05-07 17:22 60.29936 24.82398 2291 ft 212 kts 281°
2026-05-07 17:23 60.30272 24.79330 2726 ft 237 kts 275°
2026-05-07 17:23 60.30030 24.76008 3450 ft 251 kts 250°
2026-05-07 17:23 60.29362 24.72714 4437 ft 256 kts 250°
2026-05-07 17:23 60.28674 24.69357 5402 ft 261 kts 250°
2026-05-07 17:24 60.27975 24.65940 6369 ft 266 kts 250°
2026-05-07 17:24 60.27266 24.62465 7298 ft 270 kts 250°
2026-05-07 17:24 60.26548 24.58951 8277 ft 272 kts 250°
2026-05-07 17:24 60.25825 24.55426 9264 ft 273 kts 249°
2026-05-07 17:25 60.25097 24.51878 10204 ft 275 kts 249°
2026-05-07 17:25 60.24354 24.48323 11103 ft 276 kts 246°
2026-05-07 17:25 60.23433 24.44781 11514 ft 297 kts 244°
2026-05-07 17:25 60.22425 24.41010 12015 ft 310 kts 244°
2026-05-07 17:26 60.21393 24.37183 12805 ft 313 kts 244°
2026-05-07 17:26 60.20347 24.33321 13663 ft 314 kts 244°
2026-05-07 17:26 60.19310 24.29505 14415 ft 316 kts 244°
2026-05-07 17:26 60.18257 24.25628 15161 ft 316 kts 244°
2026-05-07 17:27 60.17202 24.21739 15924 ft 317 kts 244°
2026-05-07 17:27 60.16146 24.17839 16659 ft 318 kts 244°
2026-05-07 17:27 60.15087 24.13927 17400 ft 319 kts 244°
2026-05-07 17:27 60.14020 24.10005 18145 ft 321 kts 244°
2026-05-07 17:28 60.12946 24.06069 18805 ft 322 kts 244°
2026-05-07 17:28 60.11866 24.02115 19430 ft 324 kts 244°
2026-05-07 17:28 60.10778 23.98146 20062 ft 326 kts 244°
2026-05-07 17:28 60.09683 23.94158 20694 ft 327 kts 244°
2026-05-07 17:29 60.08582 23.90155 21368 ft 328 kts 244°
2026-05-07 17:29 60.07488 23.86134 21993 ft 329 kts 245°
2026-05-07 17:29 60.06410 23.82050 22535 ft 332 kts 245°
2026-05-07 17:29 60.05342 23.77936 23042 ft 336 kts 245°
2026-05-07 17:30 60.04261 23.73761 23604 ft 338 kts 245°
2026-05-07 17:30 60.03172 23.69568 24073 ft 341 kts 245°
2026-05-07 17:30 60.02082 23.65397 24515 ft 343 kts 245°
2026-05-07 17:30 60.00968 23.61155 24959 ft 346 kts 245°
2026-05-07 17:31 59.99836 23.56866 25408 ft 348 kts 245°
2026-05-07 17:31 59.98699 23.52572 25839 ft 351 kts 245°
2026-05-07 17:31 59.97548 23.48250 26266 ft 353 kts 245°
2026-05-07 17:31 59.96388 23.43891 26695 ft 356 kts 245°
2026-05-07 17:32 59.95223 23.39513 27114 ft 358 kts 245°
2026-05-07 17:32 59.94048 23.35108 27531 ft 361 kts 245°
2026-05-07 17:32 59.92875 23.30726 27938 ft 363 kts 245°
2026-05-07 17:32 59.92068 23.27713 28224 ft 365 kts 245°
2026-05-07 17:33 59.90472 23.21767 28765 ft 368 kts 244°
2026-05-07 17:33 59.89254 23.17243 29169 ft 371 kts 244°
2026-05-07 17:33 59.88029 23.12700 29522 ft 374 kts 244°
2026-05-07 17:33 59.86792 23.08114 29822 ft 378 kts 244°
2026-05-07 17:34 59.85542 23.03488 30189 ft 381 kts 244°
2026-05-07 17:34 59.84282 22.98832 30485 ft 384 kts 244°
2026-05-07 17:34 59.83027 22.94198 30792 ft 386 kts 244°
2026-05-07 17:34 59.81730 22.89433 31090 ft 389 kts 244°
2026-05-07 17:35 59.80450 22.84744 31367 ft 392 kts 244°
2026-05-07 17:35 59.79139 22.79966 31633 ft 394 kts 244°
2026-05-07 17:35 59.77825 22.75187 31999 ft 394 kts 244°
2026-05-07 17:35 59.76508 22.70402 32381 ft 394 kts 244°
2026-05-07 17:36 59.75194 22.65630 32749 ft 394 kts 244°
2026-05-07 17:36 59.73877 22.60844 33117 ft 395 kts 244°
2026-05-07 17:36 59.72564 22.56079 33494 ft 395 kts 244°
2026-05-07 17:36 59.71241 22.51294 33873 ft 395 kts 244°
2026-05-07 17:37 59.69912 22.46509 34089 ft 396 kts 244°
2026-05-07 17:37 59.68599 22.41795 34132 ft 387 kts 244°
2026-05-07 17:37 59.66032 22.32586 34120 ft 383 kts 244°
2026-05-07 17:38 59.63456 22.23373 34127 ft 382 kts 244°
2026-05-07 17:38 59.60878 22.14190 34137 ft 382 kts 244°
2026-05-07 17:39 59.58291 22.05025 34126 ft 382 kts 244°
2026-05-07 17:39 59.55694 21.95873 34146 ft 382 kts 244°
2026-05-07 17:40 59.53098 21.86736 34143 ft 381 kts 244°
2026-05-07 17:40 59.50503 21.77615 34092 ft 381 kts 244°
2026-05-07 17:41 59.47888 21.68508 34119 ft 383 kts 244°
2026-05-07 17:41 59.45269 21.59459 34123 ft 383 kts 244°
2026-05-07 17:42 59.42634 21.50353 34123 ft 383 kts 244°
2026-05-07 17:42 59.40009 21.41258 34128 ft 383 kts 244°
2026-05-07 17:43 59.37371 21.32168 34130 ft 383 kts 243°
2026-05-07 17:43 59.34719 21.23122 34132 ft 383 kts 243°
2026-05-07 17:44 59.32067 21.14085 34087 ft 383 kts 243°
2026-05-07 17:44 59.29414 21.05070 34153 ft 385 kts 243°
2026-05-07 17:45 59.26735 20.95994 34151 ft 385 kts 244°
2026-05-07 17:45 59.24045 20.86935 34149 ft 385 kts 244°
2026-05-07 17:46 59.21808 20.79424 34148 ft 385 kts 244°
2026-05-07 17:46 59.19109 20.70394 34146 ft 385 kts 243°
2026-05-07 17:47 59.15972 20.61865 34143 ft 388 kts 236°
2026-05-07 17:47 59.12628 20.53584 34142 ft 388 kts 236°
2026-05-07 17:48 59.09278 20.45308 34127 ft 390 kts 236°
2026-05-07 17:48 59.05909 20.37020 34133 ft 390 kts 236°
2026-05-07 17:49 59.02538 20.28768 34133 ft 390 kts 236°
2026-05-07 17:49 58.99185 20.20572 34135 ft 390 kts 236°
2026-05-07 17:50 58.95815 20.12343 34136 ft 390 kts 236°
2026-05-07 17:50 58.92431 20.04134 34155 ft 389 kts 236°
2026-05-07 17:51 58.89041 19.95938 34130 ft 393 kts 236°
2026-05-07 17:51 58.85614 19.87682 34136 ft 394 kts 236°
2026-05-07 17:52 58.82180 19.79435 34131 ft 394 kts 236°
2026-05-07 17:52 58.78740 19.71193 34134 ft 394 kts 236°
2026-05-07 17:53 58.75296 19.62972 34130 ft 394 kts 236°
2026-05-07 17:53 58.71864 19.54805 34138 ft 395 kts 236°
2026-05-07 17:54 58.68398 19.46583 34115 ft 396 kts 235°
2026-05-07 17:54 58.64898 19.38330 34133 ft 399 kts 235°
2026-05-07 17:55 58.61375 19.30073 34136 ft 399 kts 235°
2026-05-07 17:55 58.57883 19.21891 34137 ft 399 kts 235°
2026-05-07 17:56 58.54362 19.13668 34135 ft 399 kts 235°
2026-05-07 17:56 58.50841 19.05446 34137 ft 399 kts 235°
2026-05-07 17:57 58.47885 18.98580 34147 ft 399 kts 235°
2026-05-07 17:57 58.43759 18.89049 34120 ft 401 kts 234°
2026-05-07 17:58 58.40185 18.80842 34134 ft 403 kts 234°
2026-05-07 17:58 58.36598 18.72622 34135 ft 403 kts 234°
2026-05-07 17:59 58.33008 18.64401 34133 ft 403 kts 234°
2026-05-07 17:59 58.29417 18.56194 34137 ft 404 kts 234°
2026-05-07 18:00 58.25838 18.48052 34109 ft 404 kts 234°
2026-05-07 18:00 58.22225 18.39874 34115 ft 405 kts 234°
2026-05-07 18:01 58.18590 18.31680 34123 ft 406 kts 234°
2026-05-07 18:01 58.14945 18.23493 34124 ft 406 kts 234°
2026-05-07 18:02 58.09471 18.11249 34128 ft 406 kts 233°
2026-05-07 18:03 58.05826 18.03142 34124 ft 407 kts 233°
2026-05-07 18:03 58.02160 17.95005 34111 ft 407 kts 233°
2026-05-07 18:04 57.98481 17.86844 34117 ft 408 kts 233°
2026-05-07 18:04 57.94782 17.78694 34125 ft 409 kts 233°
2026-05-07 18:05 57.91078 17.70558 34121 ft 409 kts 233°
2026-05-07 18:05 57.87369 17.62424 34125 ft 410 kts 233°
2026-05-07 18:06 57.83652 17.54304 34128 ft 410 kts 233°
2026-05-07 18:06 57.79951 17.46257 34103 ft 410 kts 232°
2026-05-07 18:07 57.76208 17.38157 34115 ft 412 kts 232°
2026-05-07 18:07 57.72453 17.30041 34120 ft 413 kts 232°
2026-05-07 18:08 57.68678 17.21920 34125 ft 413 kts 232°
2026-05-07 18:08 57.64900 17.13817 34134 ft 414 kts 232°
2026-05-07 18:09 57.61112 17.05720 34131 ft 414 kts 232°
2026-05-07 18:09 57.57312 16.97615 34133 ft 415 kts 232°
2026-05-07 18:10 57.53505 16.89534 34134 ft 415 kts 232°
2026-05-07 18:10 57.49684 16.81476 34135 ft 415 kts 232°
2026-05-07 18:11 57.45877 16.73461 34137 ft 415 kts 232°
2026-05-07 18:11 57.42046 16.65412 34139 ft 415 kts 232°
2026-05-07 18:12 57.38222 16.57390 34122 ft 416 kts 231°
2026-05-07 18:12 57.34384 16.49365 34126 ft 417 kts 231°
2026-05-07 18:13 57.30522 16.41337 34124 ft 417 kts 231°
2026-05-07 18:13 57.26652 16.33322 34127 ft 418 kts 231°
2026-05-07 18:14 57.22774 16.25309 34129 ft 418 kts 231°
2026-05-07 18:14 57.18890 16.17314 34133 ft 419 kts 231°
2026-05-07 18:15 57.15025 16.09376 34118 ft 419 kts 231°
2026-05-07 18:15 57.11119 16.01390 34116 ft 420 kts 230°
2026-05-07 18:16 57.07193 15.93395 34122 ft 421 kts 230°
2026-05-07 18:16 57.03256 15.85405 34124 ft 421 kts 230°
2026-05-07 18:17 56.99313 15.77425 34124 ft 422 kts 230°
2026-05-07 18:17 56.95364 15.69457 34123 ft 422 kts 230°
2026-05-07 18:18 56.91410 15.61507 34111 ft 422 kts 229°
2026-05-07 18:18 56.87468 15.53616 34111 ft 423 kts 229°
2026-05-07 18:19 56.83486 15.45680 34114 ft 424 kts 229°
2026-05-07 18:19 56.79495 15.37738 34117 ft 424 kts 229°
2026-05-07 18:20 56.75506 15.29820 34122 ft 424 kts 229°
2026-05-07 18:20 56.71506 15.21907 34110 ft 425 kts 229°
2026-05-07 18:21 56.67493 15.14005 34114 ft 425 kts 229°
2026-05-07 18:21 56.63469 15.06099 34117 ft 426 kts 229°
2026-05-07 18:22 56.59437 14.98201 34114 ft 427 kts 229°
2026-05-07 18:22 56.55389 14.90328 34120 ft 427 kts 229°
2026-05-07 18:23 56.51367 14.82515 34121 ft 427 kts 229°
2026-05-07 18:23 56.47314 14.74657 34119 ft 427 kts 228°
2026-05-07 18:24 56.43243 14.66814 34119 ft 428 kts 228°
2026-05-07 18:24 56.39168 14.58981 34116 ft 428 kts 228°
2026-05-07 18:25 56.35087 14.51158 34119 ft 428 kts 228°
2026-05-07 18:25 56.31000 14.43344 34125 ft 428 kts 228°
2026-05-07 18:26 56.26910 14.35541 34119 ft 429 kts 227°
2026-05-07 18:26 56.22803 14.27740 34113 ft 429 kts 227°
2026-05-07 18:27 56.18706 14.19992 34112 ft 430 kts 227°
2026-05-07 18:27 56.14577 14.12227 34117 ft 430 kts 227°
2026-05-07 18:28 56.10445 14.04468 34119 ft 430 kts 227°
2026-05-07 18:28 56.06310 13.96713 34121 ft 430 kts 227°
2026-05-07 18:29 56.02163 13.88957 34120 ft 431 kts 227°
2026-05-07 18:29 55.98007 13.81226 34119 ft 432 kts 226°
2026-05-07 18:30 55.93855 13.73547 34116 ft 432 kts 226°
2026-05-07 18:30 55.89678 13.65822 34117 ft 433 kts 227°
2026-05-07 18:31 55.86199 13.59398 34126 ft 432 kts 227°
2026-05-07 18:31 55.82010 13.51716 34128 ft 432 kts 226°
2026-05-07 18:32 55.77126 13.42775 34124 ft 433 kts 226°
2026-05-07 18:32 55.73598 13.36328 34125 ft 434 kts 226°
2026-05-07 18:33 55.69390 13.28662 34130 ft 434 kts 226°
2026-05-07 18:33 55.65189 13.21053 34130 ft 434 kts 226°
2026-05-07 18:34 55.60960 13.13411 34131 ft 434 kts 226°
2026-05-07 18:34 55.56716 13.05779 34138 ft 435 kts 226°
2026-05-07 18:35 55.52462 12.98154 34128 ft 435 kts 225°
2026-05-07 18:35 55.48227 12.90575 34131 ft 436 kts 225°
2026-05-07 18:36 55.43936 12.82919 34132 ft 436 kts 225°
2026-05-07 18:36 55.39700 12.75377 34136 ft 436 kts 225°
2026-05-07 18:37 55.35428 12.67814 34139 ft 436 kts 225°
2026-05-07 18:37 55.31155 12.60262 34142 ft 436 kts 225°
2026-05-07 18:38 55.26880 12.52723 34140 ft 436 kts 225°
2026-05-07 18:38 55.22595 12.45207 34139 ft 435 kts 225°
2026-05-07 18:39 55.18306 12.37717 34144 ft 435 kts 225°
2026-05-07 18:39 55.14019 12.30229 34145 ft 436 kts 225°
2026-05-07 18:40 55.09712 12.22750 34138 ft 436 kts 225°
2026-05-07 18:40 55.05399 12.15282 34134 ft 437 kts 225°
2026-05-07 18:41 55.01097 12.07837 33763 ft 433 kts 225°
2026-05-07 18:41 54.98965 12.04164 33486 ft 429 kts 225°
2026-05-07 18:41 54.96850 12.00535 33184 ft 424 kts 225°
2026-05-07 18:41 54.94755 11.96941 32728 ft 421 kts 225°
2026-05-07 18:42 54.92674 11.93372 32277 ft 419 kts 224°
2026-05-07 18:42 54.90628 11.89869 31829 ft 416 kts 224°
2026-05-07 18:42 54.88567 11.86347 31405 ft 413 kts 224°
2026-05-07 18:42 54.86523 11.82859 30974 ft 410 kts 224°
2026-05-07 18:43 54.84494 11.79398 30558 ft 408 kts 224°
2026-05-07 18:43 54.82471 11.75959 30126 ft 405 kts 224°
2026-05-07 18:43 54.80466 11.72552 29702 ft 401 kts 224°
2026-05-07 18:43 54.78482 11.69188 29309 ft 397 kts 224°
2026-05-07 18:44 54.76516 11.65858 28920 ft 393 kts 224°
2026-05-07 18:44 54.74564 11.62551 28540 ft 390 kts 224°
2026-05-07 18:44 54.72654 11.59318 28162 ft 387 kts 224°
2026-05-07 18:44 54.70732 11.56078 27782 ft 384 kts 224°
2026-05-07 18:45 54.68821 11.52865 27422 ft 381 kts 224°
2026-05-07 18:45 54.66935 11.49686 27040 ft 378 kts 224°
2026-05-07 18:45 54.65060 11.46527 26651 ft 375 kts 224°
2026-05-07 18:45 54.63196 11.43395 26262 ft 372 kts 224°
2026-05-07 18:46 54.61343 11.40293 25875 ft 370 kts 224°
2026-05-07 18:46 54.59501 11.37218 25487 ft 367 kts 224°
2026-05-07 18:46 54.57667 11.34161 25087 ft 365 kts 224°
2026-05-07 18:46 54.55807 11.31198 24675 ft 363 kts 219°
2026-05-07 18:47 54.53768 11.28634 24275 ft 361 kts 216°
2026-05-07 18:47 54.51724 11.26141 23888 ft 359 kts 216°
2026-05-07 18:47 54.49690 11.23675 23466 ft 356 kts 216°
2026-05-07 18:47 54.47672 11.21226 23040 ft 353 kts 216°
2026-05-07 18:48 54.45675 11.18802 22629 ft 350 kts 216°
2026-05-07 18:48 54.43696 11.16399 22205 ft 347 kts 216°
2026-05-07 18:48 54.41728 11.14013 21786 ft 344 kts 216°
2026-05-07 18:48 54.39778 11.11652 21374 ft 342 kts 216°
2026-05-07 18:49 54.37845 11.09315 20969 ft 339 kts 216°
2026-05-07 18:49 54.35943 11.07021 20572 ft 337 kts 216°
2026-05-07 18:49 54.34031 11.04720 20171 ft 334 kts 216°
2026-05-07 18:49 54.32133 11.02440 19782 ft 332 kts 216°
2026-05-07 18:50 54.30368 10.99910 19398 ft 329 kts 227°
2026-05-07 18:50 54.28913 10.96905 19025 ft 326 kts 233°
2026-05-07 18:50 54.27536 10.93828 18657 ft 324 kts 233°
2026-05-07 18:50 54.26168 10.90775 18261 ft 322 kts 233°
2026-05-07 18:51 54.24805 10.87747 17816 ft 321 kts 233°
2026-05-07 18:51 54.23446 10.84736 17412 ft 318 kts 233°
2026-05-07 18:51 54.22098 10.81753 17007 ft 316 kts 233°
2026-05-07 18:51 54.20752 10.78789 16608 ft 314 kts 232°
2026-05-07 18:52 54.19415 10.75848 16214 ft 312 kts 232°
2026-05-07 18:52 54.18102 10.72962 15876 ft 311 kts 232°
2026-05-07 18:52 54.16775 10.70044 15615 ft 311 kts 232°
2026-05-07 18:52 54.15448 10.67129 15364 ft 310 kts 232°
2026-05-07 18:53 54.14129 10.64230 15112 ft 309 kts 232°
2026-05-07 18:53 54.12817 10.61338 14875 ft 308 kts 232°
2026-05-07 18:53 54.11506 10.58458 14628 ft 306 kts 232°
2026-05-07 18:53 54.10211 10.55631 14397 ft 300 kts 232°
2026-05-07 18:54 54.08933 10.52842 14082 ft 297 kts 232°
2026-05-07 18:54 54.07664 10.50073 13718 ft 296 kts 232°
2026-05-07 18:54 54.06401 10.47323 13373 ft 293 kts 232°
2026-05-07 18:54 54.05152 10.44595 13032 ft 291 kts 232°
2026-05-07 18:55 54.03910 10.41890 12695 ft 289 kts 232°
2026-05-07 18:55 54.02678 10.39210 12358 ft 287 kts 232°
2026-05-07 18:55 54.01451 10.36542 12021 ft 285 kts 232°
2026-05-07 18:55 54.00229 10.33896 11691 ft 284 kts 230°
2026-05-07 18:56 53.98734 10.31652 11346 ft 290 kts 212°
2026-05-07 18:56 53.96924 10.30320 11046 ft 288 kts 193°
2026-05-07 18:56 53.94919 10.29996 10967 ft 293 kts 176°
2026-05-07 18:56 53.92902 10.30547 10844 ft 293 kts 168°
2026-05-07 18:57 53.90901 10.31206 10610 ft 292 kts 168°
2026-05-07 18:57 53.88909 10.31863 10414 ft 291 kts 168°
2026-05-07 18:57 53.86915 10.32523 10260 ft 291 kts 168°
2026-05-07 18:57 53.84927 10.33180 10097 ft 291 kts 168°
2026-05-07 18:58 53.82944 10.33833 9915 ft 290 kts 168°
2026-05-07 18:58 53.80967 10.34484 9729 ft 289 kts 168°
2026-05-07 18:58 53.78997 10.35135 9533 ft 287 kts 168°
2026-05-07 18:58 53.77040 10.35781 9344 ft 285 kts 168°
2026-05-07 18:59 53.75091 10.36423 9129 ft 284 kts 168°
2026-05-07 18:59 53.73135 10.36857 8914 ft 284 kts 181°
2026-05-07 18:59 53.71222 10.36124 8703 ft 284 kts 204°
2026-05-07 18:59 53.69623 10.34195 8492 ft 284 kts 227°
2026-05-07 19:00 53.68352 10.31641 8275 ft 285 kts 230°
2026-05-07 19:00 53.67097 10.29062 8076 ft 285 kts 230°
2026-05-07 19:00 53.65837 10.26473 7873 ft 285 kts 230°
2026-05-07 19:00 53.64582 10.23899 7667 ft 283 kts 230°
2026-05-07 19:01 53.63349 10.21379 7470 ft 281 kts 230°
2026-05-07 19:01 53.62102 10.18834 7265 ft 281 kts 230°
2026-05-07 19:01 53.60850 10.16294 7067 ft 280 kts 230°
2026-05-07 19:01 53.59605 10.13773 6867 ft 281 kts 230°
2026-05-07 19:02 53.58354 10.11242 6667 ft 280 kts 230°
2026-05-07 19:02 53.57112 10.08732 6467 ft 279 kts 229°
2026-05-07 19:02 53.55876 10.06226 6259 ft 278 kts 230°
2026-05-07 19:02 53.54640 10.03724 6047 ft 277 kts 230°
2026-05-07 19:03 53.53411 10.01238 5837 ft 276 kts 230°
2026-05-07 19:03 53.52185 9.98761 5630 ft 275 kts 229°
2026-05-07 19:03 53.50959 9.96291 5422 ft 275 kts 229°
2026-05-07 19:03 53.49734 9.93824 5211 ft 274 kts 229°
2026-05-07 19:04 53.48515 9.91369 5012 ft 273 kts 229°
2026-05-07 19:04 53.47299 9.88923 4794 ft 272 kts 229°
2026-05-07 19:04 53.46099 9.86509 4587 ft 265 kts 229°
2026-05-07 19:04 53.44945 9.84187 4377 ft 257 kts 229°
2026-05-07 19:05 53.43853 9.81852 4160 ft 250 kts 239°
2026-05-07 19:05 53.43405 9.79120 3941 ft 242 kts 271°
2026-05-07 19:05 53.43827 9.76473 3741 ft 232 kts 302°
2026-05-07 19:05 53.44783 9.74367 3555 ft 223 kts 313°
2026-05-07 19:06 53.45810 9.72472 3341 ft 215 kts 320°
2026-05-07 19:06 53.48438 9.71389 3082 ft 189 kts 14°
2026-05-07 19:06 53.49617 9.72205 3029 ft 181 kts 37°
2026-05-07 19:07 53.50520 9.73642 3035 ft 179 kts 53°
2026-05-07 19:07 53.51322 9.75249 3040 ft 179 kts 52°
2026-05-07 19:07 53.52122 9.76850 3013 ft 179 kts 52°
2026-05-07 19:07 53.52923 9.78455 2851 ft 179 kts 52°
2026-05-07 19:08 53.53720 9.80054 2633 ft 178 kts 52°
2026-05-07 19:08 53.54513 9.81645 2396 ft 177 kts 52°
2026-05-07 19:08 53.55296 9.83217 2156 ft 171 kts 53°
2026-05-07 19:08 53.56032 9.84695 1934 ft 158 kts 53°
2026-05-07 19:09 53.56701 9.86037 1731 ft 140 kts 53°
2026-05-07 19:09 53.57297 9.87235 1527 ft 129 kts 53°
2026-05-07 19:09 53.57866 9.88379 1323 ft 126 kts 53°
2026-05-07 19:09 53.58425 9.89504 1152 ft 125 kts 53°
2026-05-07 19:10 53.58978 9.90611 1018 ft 122 kts 53°
2026-05-07 19:10 53.59522 9.91693 832 ft 122 kts 51°
2026-05-07 19:10 53.60060 9.92791 668 ft 123 kts 51°
2026-05-07 19:10 53.60605 9.93903 522 ft 124 kts 51°
2026-05-07 19:11 53.61155 9.95012 345 ft 123 kts 51°
2026-05-07 19:11 53.61696 9.96112 194 ft 123 kts 52°
2026-05-07 19:11 53.62241 9.97216 54 ft 122 kts 52°
2026-05-07 19:11 53.62712 9.98186 42 ft 86 kts 50°
2026-05-07 19:12 53.63013 9.98787 45 ft 62 kts 50°
2026-05-07 19:12 53.63243 9.99251 47 ft 33 kts 53°
2026-05-07 19:12 53.63285 9.99575 46 ft 17 kts 98°
2026-05-07 19:12 53.63279 9.99639 48 ft 0 kts 98°
2026-05-07 19:13 53.63279 9.99642 48 ft 1 kts 99°
2026-05-07 19:13 53.63276 9.99668 48 ft 5 kts 101°
2026-05-07 19:14 53.63236 9.99749 48 ft 12 kts 147°
2026-05-07 19:14 53.63152 9.99823 48 ft 15 kts 153°
2026-05-07 19:14 53.63051 9.99910 48 ft 18 kts 153°
2026-05-07 19:14 53.62985 9.99967 48 ft 13 kts 153°
2026-05-07 19:15 53.62953 10.00100 48 ft 15 kts 68°
2026-05-07 19:15 53.63029 10.00220 48 ft 14 kts 33°
2026-05-07 19:15 53.63111 10.00260 47 ft 13 kts 357°
2026-05-07 19:15 53.63163 10.00263 48 ft 5 kts 30°
2026-05-07 19:16 53.63166 10.00334 48 ft 7 kts 86°
2026-05-07 19:16 53.63168 10.00365 48 ft 1 kts 85°
2026-05-07 19:16 53.63168 10.00367 48 ft 0 kts 85°